DW0333 Tranby-Lier NO current weather conditions

sailwx.info

Wind from 131 at 4 knots

Air temperature 12.2° C
Dewpoint 11.8° C

Last reported at 2016-Jun-26 21:36 UTC.
Time now 2016-Jun-26 22:47 UTC

Location: N 59°50' E 010°17'.
View on Google Maps.

See reports from other nearby stations

  
Tides and Currents Weather Stations Pressure Air Temp Water Temp Dewpoint Dewpoint Depression Visibility Wind Speed Wind Dir Waves Ship Positions
date/time (UTC)wind fromknots sea level pressurealtimeterstation pressurevisibilityair tempwater tempwave heightnotes
2016-Jun-26 21:36 131 4 12.2
2016-Jun-26 21:21 130 3 12.2
2016-Jun-26 21:06 157 4 12.2
2016-Jun-26 20:51 121 4 12.2
2016-Jun-26 20:36 144 3 12.8
2016-Jun-26 20:21 165 4 12.8
2016-Jun-26 20:06 143 3 12.8
2016-Jun-26 19:51 112 2 12.8
2016-Jun-26 19:36 109 3 12.8
2016-Jun-26 19:21 109 3 12.8
2016-Jun-26 19:06 121 3 12.8
2016-Jun-26 18:51 148 3 12.8
2016-Jun-26 18:36 158 3 12.8
2016-Jun-26 18:21 111 3 12.8
2016-Jun-26 18:06 113 4 12.8
2016-Jun-26 17:51 136 5 12.8
2016-Jun-26 17:36 156 5 12.8
2016-Jun-26 17:21 092 5 12.8
2016-Jun-26 17:06 133 6 12.8
2016-Jun-26 16:51 138 5 13.3
2016-Jun-26 16:36 162 5 13.3
2016-Jun-26 16:21 123 5 13.9
2016-Jun-26 16:06 117 5 14.4
2016-Jun-26 15:51 146 6 14.4
2016-Jun-26 15:36 144 6 14.4
2016-Jun-26 15:20 140 5 14.4
2016-Jun-26 15:06 152 5 14.4
2016-Jun-26 14:51 127 6 15.0
2016-Jun-26 14:35 074 6 15.6
2016-Jun-26 14:21 066 6 16.1
2016-Jun-26 14:05 105 2 16.7
2016-Jun-26 13:50 074 2 16.1
2016-Jun-26 13:35 116 1 16.1
2016-Jun-26 13:20 038 2 16.1
2016-Jun-26 13:05 076 2 16.1
2016-Jun-26 12:50 093 2 16.1
2016-Jun-26 12:35 061 2 16.1
2016-Jun-26 12:20 111 2 15.6
2016-Jun-26 12:05 127 3 15.6
2016-Jun-26 11:50 044 3 15.6
2016-Jun-26 11:35 105 3 15.6
2016-Jun-26 11:20 059 2 16.1
2016-Jun-26 11:05 074 2 16.1
2016-Jun-26 10:50 021 2 15.6
2016-Jun-26 10:35 043 1 15.6
2016-Jun-26 10:20 356 2 15.0
2016-Jun-26 10:05 306 2 15.0
2016-Jun-26 09:50 039 2 15.0
2016-Jun-26 09:35 346 2 14.4
2016-Jun-26 09:20 356 1 14.4
2016-Jun-26 09:05 319 1 14.4
2016-Jun-26 08:50 027 1 14.4
2016-Jun-26 08:35 303 1 14.4
2016-Jun-26 08:20 335 2 14.4
2016-Jun-26 08:05 338 1 13.9
2016-Jun-26 07:50 042 1 13.9
2016-Jun-26 07:35 295 0 13.9
2016-Jun-26 07:20 132 1 13.9
2016-Jun-26 07:05 310 3 13.9
2016-Jun-26 06:50 357 5 13.9
2016-Jun-26 06:35 304 4 13.9
2016-Jun-26 06:20 327 3 13.9
2016-Jun-26 06:05 325 4 13.9
2016-Jun-26 05:50 302 2 13.9
2016-Jun-26 05:35 296 4 13.9
2016-Jun-26 05:20 320 3 13.9
2016-Jun-26 05:05 343 3 14.4
2016-Jun-26 04:50 336 3 14.4
2016-Jun-26 04:35 296 2 15.6
2016-Jun-26 04:20 029 2 15.6
2016-Jun-26 04:05 329 0 16.1
2016-Jun-26 03:50 321 0 16.1
2016-Jun-26 03:35 196 3 16.1
2016-Jun-26 03:20 320 2 16.7
2016-Jun-26 03:05 290 2 16.7
2016-Jun-26 02:54 340 0 16.7
2016-Jun-26 02:46 010 0 16.7
2016-Jun-26 02:39 015 0 16.7
2016-Jun-26 02:33 001 16.7
2016-Jun-26 02:25 337 16.7
2016-Jun-26 02:20 331 0 16.7
2016-Jun-26 02:15 317 0 16.7
2016-Jun-26 02:06 344 1 16.7
2016-Jun-26 02:00 327 0 16.7
2016-Jun-26 01:55 314 0 16.7
2016-Jun-26 01:46 021 0 16.7
2016-Jun-26 01:38 044 0 16.7
2016-Jun-26 01:29 035 0 16.7
2016-Jun-26 01:23 036 0 16.7
2016-Jun-26 01:17 002 16.7
2016-Jun-26 01:12 003 16.7
2016-Jun-26 01:05 002 16.7
2016-Jun-26 00:57 352 0 16.7
2016-Jun-26 00:52 354 16.7
2016-Jun-26 00:12 326 16.7
2016-Jun-25 23:16 326 16.7
2016-Jun-25 23:02 303 0 16.7
2016-Jun-25 22:57 181 17.2
2016-Jun-25 22:48 183 17.2
2016-Jun-25 21:26 183 17.2
2016-Jun-25 20:19 177 17.8
2016-Jun-25 20:04 177 17.8
2016-Jun-25 19:49 177 18.3
2016-Jun-25 19:34 177 0 18.3
2016-Jun-25 19:19 177 0 18.3
2016-Jun-25 19:04 178 1 18.9
2016-Jun-25 18:49 167 1 18.9
2016-Jun-25 18:34 196 0 19.4
2016-Jun-25 18:19 277 19.4
2016-Jun-25 18:04 273 0 19.4
2016-Jun-25 17:49 261 1 20.0
2016-Jun-25 17:34 199 2 20.0
2016-Jun-25 17:19 169 3 20.6
2016-Jun-25 17:04 111 2 21.1
2016-Jun-25 16:49 132 2 21.7
2016-Jun-25 16:34 165 3 21.7
2016-Jun-25 16:19 166 1 21.7
2016-Jun-25 16:04 140 2 22.2
2016-Jun-25 15:49 146 2 22.2
2016-Jun-25 15:34 185 3 21.7
2016-Jun-25 15:19 201 4 21.7
2016-Jun-25 15:04 122 3 21.1
2016-Jun-25 14:49 123 4 21.1
2016-Jun-25 14:34 225 5 21.1
2016-Jun-25 14:19 154 4 21.7
2016-Jun-25 14:04 134 5 21.7
2016-Jun-25 13:49 185 5 22.2
2016-Jun-25 13:34 195 4 22.8
2016-Jun-25 13:19 242 4 23.3
2016-Jun-25 13:04 133 4 23.3
2016-Jun-25 12:49 166 3 23.3
2016-Jun-25 12:34 146 3 23.3
2016-Jun-25 12:19 154 2 22.8
2016-Jun-25 12:04 221 2 22.8
2016-Jun-25 11:49 207 3 22.2
2016-Jun-25 11:34 236 3 21.7
2016-Jun-25 11:19 142 3 21.7
2016-Jun-25 11:04 263 3 21.7
2016-Jun-25 10:49 262 3 21.7
2016-Jun-25 10:34 241 2 21.1
2016-Jun-25 10:19 144 3 21.1
2016-Jun-25 10:04 243 3 20.6
2016-Jun-25 09:49 221 2 20.6
2016-Jun-25 09:34 250 2 20.0
2016-Jun-25 09:18 175 3 20.0
2016-Jun-25 09:04 142 2 19.4
2016-Jun-25 08:48 148 3 19.4
2016-Jun-25 08:33 267 2 18.9
2016-Jun-25 08:18 200 2 18.9
2016-Jun-25 08:03 188 2 18.3
2016-Jun-25 07:48 179 1 17.8
2016-Jun-25 07:33 198 2 17.2
2016-Jun-25 07:18 238 1 17.2
2016-Jun-25 07:03 246 1 16.7
2016-Jun-25 06:48 259 1 16.1
2016-Jun-25 06:33 280 1 15.0
2016-Jun-25 06:18 249 1 14.4
2016-Jun-25 06:03 226 0 14.4
2016-Jun-25 05:48 202 0 13.9
2016-Jun-25 05:33 167 0 13.9
2016-Jun-25 05:18 146 1 13.9
2016-Jun-25 05:03 143 1 13.9
2016-Jun-25 04:48 143 1 13.9
2016-Jun-25 04:33 167 1 13.9
2016-Jun-25 04:18 129 2 13.9
2016-Jun-25 04:03 127 1 13.9
2016-Jun-25 03:48 129 0 13.9
2016-Jun-25 03:33 160 0 13.9
2016-Jun-25 03:17 166 0 13.9
2016-Jun-25 03:02 212 1 13.9
2016-Jun-25 02:47 225 1 13.9
2016-Jun-25 02:33 142 1 13.9
2016-Jun-25 02:17 212 1 13.9
2016-Jun-25 02:02 242 1 13.9
2016-Jun-25 01:47 178 1 13.9
2016-Jun-25 01:33 158 2 13.9
2016-Jun-25 01:17 163 1 13.9
2016-Jun-25 01:02 183 2 14.4
2016-Jun-25 00:47 199 2 14.4
2016-Jun-25 00:32 119 1 14.4
2016-Jun-25 00:17 135 2 14.4
2016-Jun-25 00:02 140 2 14.4
2016-Jun-24 23:47 106 2 14.4
2016-Jun-24 23:32 173 2 14.4
2016-Jun-24 23:17 159 2 14.4
2016-Jun-24 23:02 126 3 14.4
2016-Jun-24 22:47 106 2 14.4
2016-Jun-24 22:32 121 1 14.4
2016-Jun-24 22:17 079 2 15.0
2016-Jun-24 22:02 136 3 15.0